Date String (YYYY-MM-DD hh:mm:ss) UTC,Instrument flags,Ambient pressure (hPa),Sample flow (lpm),Bypass flow (lpm),Sample temperature (°C),Ambient temperature (°C),ASC tube jacket temperature (°C),LED temperature (°C),Box temperature (°C),Sample RH (%),Span deviation,Mass concentration (μg/m³),Mass concentration (μg/m³),Mass concentration (μg/m³)
DateTimeUTC,F1_M11,P_M11,Q1_M11,Q2_M11,T1_M11,T2_M11,T3_M11,T4_M11,T5_M11,U1_M11,ZSPAN_M11,X0_M11,X2_M11,X1_M11
2022-12-27 23:04:00,,0809.0,5.00,0.00,25.2,23.9,00.0,34.0,27.0,12.8,0000.0,0002.64,0000.39,0000.23
2022-12-27 23:05:00,,0809.0,4.99,0.00,25.2,23.9,00.0,34.0,27.0,12.8,0000.0,0002.63,0000.39,0000.24
2022-12-27 23:06:00,,0809.0,4.99,0.00,25.2,23.9,00.0,34.0,27.0,12.7,0000.0,0002.09,0000.43,0000.24
2022-12-27 23:07:00,,0809.1,5.00,0.00,25.2,23.9,00.0,34.1,27.1,12.8,0000.0,0002.10,0000.42,0000.24
2022-12-27 23:08:00,,0809.0,5.00,0.00,25.2,23.9,00.0,34.1,27.1,13.0,0000.0,0002.38,0000.42,0000.24
2022-12-27 23:09:00,,0809.1,5.01,0.00,25.3,24.0,00.0,34.1,27.1,13.1,0000.0,0002.42,0000.44,0000.23
2022-12-27 23:10:00,,0809.1,4.99,0.00,25.3,24.0,00.0,34.1,27.1,13.2,0000.0,0002.44,0000.44,0000.23
2022-12-27 23:11:00,,0809.0,5.00,0.00,25.3,24.0,00.0,34.1,27.1,13.6,0000.0,0002.02,0000.45,0000.23
2022-12-27 23:12:00,,0809.1,5.00,0.00,25.3,24.0,00.0,34.1,27.1,13.4,0000.0,0001.29,0000.44,0000.22
2022-12-27 23:13:00,,0809.2,5.00,0.00,25.3,24.0,00.0,34.1,27.1,13.3,0000.0,0001.29,0000.43,0000.22
2022-12-27 23:14:00,,0809.2,4.99,0.00,25.3,23.9,00.0,34.1,27.1,13.6,0000.0,0001.23,0000.41,0000.21
2022-12-27 23:15:00,,0809.3,5.01,0.00,25.3,23.9,00.0,34.1,27.1,13.9,0000.0,0001.20,0000.39,0000.20
2022-12-27 23:16:00,,0809.5,5.00,0.00,25.3,23.9,00.0,34.0,27.0,13.9,0000.0,0001.29,0000.40,0000.20
2022-12-27 23:17:00,,0809.6,5.00,0.00,25.2,23.9,00.0,34.0,27.0,14.0,0000.0,0001.20,0000.36,0000.19
2022-12-27 23:18:00,,0809.6,5.00,0.00,25.2,23.9,00.0,34.1,26.9,13.9,0000.0,0001.08,0000.34,0000.19
2022-12-27 23:19:00,,0809.6,5.00,0.00,25.2,23.9,00.0,34.1,27.0,14.1,0000.0,0000.81,0000.32,0000.18
2022-12-27 23:20:00,,0809.5,5.01,0.00,25.2,23.8,00.0,34.1,27.0,13.8,0000.0,0000.77,0000.30,0000.18
2022-12-27 23:21:00,,0809.6,5.00,0.00,25.2,23.8,00.0,34.1,27.0,13.8,0000.0,0001.24,0000.28,0000.18
2022-12-27 23:22:00,,0809.7,5.00,0.00,25.2,23.8,00.0,34.1,27.0,13.7,0000.0,0001.46,0000.28,0000.17
2022-12-27 23:23:00,,0809.7,5.00,0.00,25.2,23.9,00.0,34.1,27.0,13.6,0000.0,0001.52,0000.30,0000.17
2022-12-27 23:24:00,,0809.7,4.99,0.00,25.2,23.9,00.0,34.1,27.0,12.7,0000.0,0001.58,0000.31,0000.17
2022-12-27 23:25:00,,0809.7,5.00,0.00,25.2,23.9,00.0,34.1,27.0,13.3,0000.0,0001.60,0000.31,0000.17
2022-12-27 23:26:00,,0809.5,4.99,0.00,25.3,23.9,00.0,34.1,27.1,14.1,0000.0,0001.60,0000.31,0000.17
2022-12-27 23:27:00,,0809.5,5.00,0.00,25.3,23.9,00.0,34.1,27.1,14.1,0000.0,0001.53,0000.30,0000.17
2022-12-27 23:28:00,,0809.5,5.00,0.00,25.3,23.9,00.0,34.1,27.1,14.1,0000.0,0001.53,0000.31,0000.17
2022-12-27 23:29:00,,0809.7,5.01,0.00,25.3,23.9,00.0,34.1,27.1,14.0,0000.0,0001.53,0000.32,0000.18
2022-12-27 23:30:00,,0809.7,5.00,0.00,25.3,23.8,00.0,34.1,27.1,14.1,0000.0,0001.36,0000.32,0000.18
2022-12-27 23:31:00,,0809.7,5.01,0.00,25.2,23.8,00.0,34.1,27.1,14.0,0000.0,0001.37,0000.34,0000.19
2022-12-27 23:32:00,,0809.7,5.00,0.00,25.2,23.8,00.0,34.1,27.0,14.2,0000.0,0000.93,0000.33,0000.19
2022-12-27 23:33:00,,0809.5,5.00,0.00,25.2,23.8,00.0,34.1,26.9,14.3,0000.0,0000.61,0000.33,0000.20
2022-12-27 23:34:00,,0809.5,5.00,0.00,25.2,23.8,00.0,34.1,26.9,14.5,0000.0,0000.56,0000.31,0000.20
2022-12-27 23:35:00,,0809.5,5.01,0.00,25.2,23.8,00.0,34.1,26.9,14.5,0000.0,0000.53,0000.31,0000.20
2022-12-27 23:36:00,,0809.4,5.00,0.00,25.2,23.8,00.0,34.1,27.0,14.7,0000.0,0000.52,0000.31,0000.21
2022-12-27 23:37:00,,0809.5,5.00,0.00,25.2,23.8,00.0,34.1,27.1,14.7,0000.0,0000.53,0000.32,0000.21
2022-12-27 23:38:00,,0809.6,5.01,0.00,25.2,23.8,00.0,34.1,27.1,14.8,0000.0,0000.72,0000.36,0000.22
2022-12-27 23:39:00,,0809.5,5.00,0.00,25.2,23.8,00.0,34.1,27.0,14.9,0000.0,0000.90,0000.36,0000.22
2022-12-27 23:40:00,,0809.5,5.00,0.00,25.2,23.8,00.0,34.1,27.0,15.1,0000.0,0003.01,0000.36,0000.22
2022-12-27 23:41:00,,0809.4,5.00,0.00,25.2,23.8,00.0,34.1,27.1,15.1,0000.0,0003.47,0000.36,0000.23
2022-12-27 23:42:00,,0809.4,5.00,0.00,25.2,23.8,00.0,34.1,27.0,15.1,0000.0,0003.52,0000.35,0000.23
2022-12-27 23:43:00,,0809.4,4.99,0.00,25.2,23.7,00.0,34.1,27.0,15.2,0000.0,0003.82,0000.38,0000.24
2022-12-27 23:44:00,,0809.4,5.00,0.00,25.2,23.7,00.0,34.1,27.0,15.3,0000.0,0004.55,0000.40,0000.23
2022-12-27 23:45:00,,0809.4,5.00,0.00,25.2,23.7,00.0,34.1,27.0,15.3,0000.0,0004.56,0000.40,0000.24
2022-12-27 23:46:00,,0809.4,5.01,0.00,25.2,23.7,00.0,34.1,27.0,15.3,0000.0,0004.55,0000.40,0000.24
2022-12-27 23:47:00,,0809.3,5.01,0.00,25.2,23.7,00.0,34.1,27.0,15.4,0000.0,0004.56,0000.41,0000.24
2022-12-27 23:48:00,,0809.4,5.01,0.00,25.2,23.7,00.0,34.1,27.0,15.3,0000.0,0004.62,0000.42,0000.25
2022-12-27 23:49:00,,0809.3,5.00,0.00,25.2,23.7,00.0,34.1,27.0,15.5,0000.0,0004.54,0000.39,0000.24
2022-12-27 23:50:00,,0809.2,5.00,0.00,25.2,23.7,00.0,34.1,27.0,15.6,0000.0,0004.20,0000.38,0000.23
2022-12-27 23:51:00,,0809.3,4.99,0.00,25.2,23.6,00.0,34.0,27.0,15.4,0000.0,0002.10,0000.36,0000.23
2022-12-27 23:52:00,,0809.4,5.00,0.00,25.2,23.6,00.0,34.0,26.9,15.5,0000.0,0001.75,0000.34,0000.21
2022-12-27 23:53:00,,0809.6,4.98,0.00,25.1,23.6,00.0,34.0,26.9,15.5,0000.0,0001.91,0000.34,0000.20
2022-12-27 23:54:00,,0809.5,4.99,0.00,25.1,23.6,00.0,34.0,26.9,15.6,0000.0,0002.09,0000.31,0000.19
2022-12-27 23:55:00,,0809.5,5.00,0.00,25.1,23.6,00.0,34.0,26.9,15.4,0000.0,0001.40,0000.30,0000.19
2022-12-27 23:56:00,,0809.5,4.98,0.00,25.1,23.6,00.0,34.0,26.9,15.0,0000.0,0001.47,0000.34,0000.18
2022-12-27 23:57:00,,0809.6,5.00,0.00,25.1,23.6,00.0,34.0,26.8,14.3,0000.0,0001.47,0000.34,0000.17
2022-12-27 23:58:00,,0809.7,5.00,0.00,25.1,23.6,00.0,34.0,26.8,13.9,0000.0,0001.50,0000.34,0000.16
2022-12-27 23:59:00,,0809.7,4.99,0.00,25.1,23.6,00.0,34.0,26.8,14.0,0000.0,0001.43,0000.33,0000.16
